Showing default

COSMOS 1691, 16139

Orbit data source: Space-Track

COSMOS 1691, 16139 is a payload satellite owned by GUKOS (CIS) in LEO that was launched on Wed, 09 Oct 1985 UTC via a TSIKLON-3 launch vehicle from the Plesetsk Missile And Space Complex (PKMTR). Payloads include a variety of satellites, spacecraft, and rockets equipped with specific instruments for various scientific and technological missions. These include communications satellites like Starlink; space stations such as the ISS; scientific satellites like the Hubble; Earth observation satellites from companies like Planet Labs, Umbra, and HawkEye 360; GPS; miniature CubeSats for education and research; and military/defense satellites.

Loading next visibility...
COSMOS 1691 details
Identifier
16139, 1985-094B
Orbit
LEO
Last TLE update22 hours ago
Origin
Flag of CISGUKOS (CIS)
ManufacturerNPO PM
MissionDefense Communications
Bus & MotorSTRELA-3, Unknown motor
Mass225 kg wet, 225 kg dry
Launch date (UTC)
1985-10-09 (39 years ago)
Launch vehicle
TSIKLON-3
Launch site
Plesetsk Missile And Space Complex (PKMTR)
Object type
Payload
Rocket body
Debris
Shape & HBRCyl, 1.6 m
Radar Cross Section1.257 m², Medium (>0.1 m² and < 1m²)

Expand to show TLE details & history

TLE from 22 hours ago
0 COSMOS 1691
1 16139U 85094B   24360.52689303  .00000026  00000-0  85517-4 0  9995
2 16139  82.6116 272.1718 0000999  46.9497 126.8413 12.62453864807304
Epoch: 2024-12-25T12:38Z
Definitive object data (Epoch: 2024-12-25T12:38:43.557Z)
Latitude6.07467°
Longitude167.18415°
Altitude1,415.449 km
Speed7.153 km/s
True Right ascension06h 05m 32s
True Declination6° 02' 30"
Sunlit
Object was in full shadow at TLE epoch
Visualization TLE readout
Latitude67.98994°
Longitude5.99621°
Altitude1,423.864 km
Speed7.155 km/s
Apparent Right ascension21h 11m 38s
Apparent Declination23° 16' 26"
Sunlit
Object is in daylight
Visualization observer readout
Local Sidereal Time10:16:15
Azimuth16.385° NNE
Elevation-25.038°
Doppler factor1
Orbital elements
Apogee altitude1,410.93 km
Perigee altitude1,409.374 km
Semi-major axis7,788.289 km
Eccentricity0.0000999
Inclination82.6116°
RAAN272.1718°
Arg. of periapsis46.9497°
True anomaly126.85046°
Mean anomaly126.8413°
Eccentric anomaly126.84588°
Mean motion3.15777 °/min
BSTAR0.000085517
Orbital period114 mins
Loading maneuver chart data...
Loading historical data...
Loading historical data...
Loading historical data...
Loading historical data...
Loading historical data...
Loading historical data...
Loading historical data...

COSMOS 1691 Visibility forecast

Observer location: undefined°, undefined

Span
Click to sort rows by Start time (UTC) header in descending order
Start Az.
Max El. time (UTC)
Max El. Az.
Max El.
End time (UTC)
End Az.
15 mins2024-12-26 18:14:59.568Z158.003° S2024-12-26 18:21:59.568Z93.566° ESE36.664°2024-12-26 18:29:59.568Z18.695° NNE
13 mins2024-12-26 20:10:59.568Z228.929° WSW2024-12-26 20:16:59.568Z282.788° WNW29.668°2024-12-26 20:23:59.568Z348.244° N
8 mins2024-12-27 04:18:59.568Z34.792° NE2024-12-27 04:22:59.568Z68.408° E17.787°2024-12-27 04:26:59.568Z99.939° ESE
14 mins2024-12-27 06:11:59.568Z351.382° N2024-12-27 06:18:59.568Z202.61° SW44.722°2024-12-27 06:25:59.568Z177.012° S
7 mins2024-12-27 08:08:59.568Z308.169° NW2024-12-27 08:11:59.568Z285.228° WNW14.802°2024-12-27 08:15:59.568Z254.838° W
|